TimeEDT,TemperatureF,Dew PointF,Humidity,Sea Level PressureIn,VisibilityMPH,Wind Direction,Wind SpeedMPH,Gust SpeedMPH,PrecipitationIn,Events,Conditions,WindDirDegrees,DateUTC
12:53 AM,44.1,19.9,38,30.34,10.0,NNW,10.4,19.6,N/A,,Clear,340,2013-04-21 04:53:00
1:53 AM,41.0,21.0,45,30.37,10.0,North,8.1,-,N/A,,Clear,350,2013-04-21 05:53:00
2:53 AM,39.0,19.0,45,30.39,10.0,Calm,Calm,-,N/A,,Clear,0,2013-04-21 06:53:00
3:53 AM,37.0,19.0,48,30.41,10.0,North,4.6,-,N/A,,Clear,360,2013-04-21 07:53:00
4:53 AM,37.0,19.0,48,30.43,10.0,NNW,5.8,-,N/A,,Clear,330,2013-04-21 08:53:00
5:53 AM,36.0,19.9,52,30.47,10.0,Variable,3.5,-,N/A,,Clear,0,2013-04-21 09:53:00
6:53 AM,36.0,19.9,52,30.50,10.0,NNW,3.5,-,N/A,,Clear,340,2013-04-21 10:53:00
7:53 AM,39.0,21.0,49,30.53,10.0,NNW,9.2,-,N/A,,Clear,340,2013-04-21 11:53:00
8:53 AM,39.9,21.0,47,30.55,10.0,NNW,12.7,18.4,N/A,,Clear,340,2013-04-21 12:53:00
9:53 AM,43.0,21.0,42,30.56,10.0,North,9.2,17.3,N/A,,Clear,10,2013-04-21 13:53:00
10:53 AM,45.0,21.0,39,30.58,10.0,NNE,10.4,17.3,N/A,,Clear,20,2013-04-21 14:53:00
11:53 AM,46.9,23.0,39,30.57,10.0,Calm,Calm,-,N/A,,Clear,0,2013-04-21 15:53:00
12:53 PM,48.9,19.0,31,30.56,10.0,WNW,4.6,-,N/A,,Clear,290,2013-04-21 16:53:00
1:53 PM,53.1,19.9,27,30.55,10.0,Variable,5.8,-,N/A,,Clear,0,2013-04-21 17:53:00
2:53 PM,54.0,19.0,25,30.53,10.0,North,6.9,-,N/A,,Clear,360,2013-04-21 18:53:00
3:53 PM,55.0,21.0,27,30.52,10.0,Variable,5.8,-,N/A,,Clear,0,2013-04-21 19:53:00
4:53 PM,55.0,21.0,27,30.52,10.0,Calm,Calm,-,N/A,,Clear,0,2013-04-21 20:53:00
5:53 PM,55.9,18.0,23,30.53,10.0,NNE,4.6,-,N/A,,Clear,20,2013-04-21 21:53:00
6:53 PM,54.0,19.0,25,30.53,10.0,East,4.6,-,N/A,,Clear,80,2013-04-21 22:53:00
7:53 PM,48.0,26.1,42,30.56,10.0,ESE,3.5,-,N/A,,Clear,120,2013-04-21 23:53:00
8:53 PM,45.0,26.1,48,30.59,10.0,SE,3.5,-,N/A,,Clear,130,2013-04-22 00:53:00
9:53 PM,45.0,25.0,46,30.59,10.0,Calm,Calm,-,N/A,,Clear,0,2013-04-22 01:53:00
10:53 PM,43.0,28.0,56,30.60,10.0,Calm,Calm,-,N/A,,Clear,0,2013-04-22 02:53:00
11:53 PM,39.0,30.0,70,30.61,10.0,Calm,Calm,-,N/A,,Clear,0,2013-04-22 03:53:00